STARLINK-32540, 61723

Orbit data source: Space-Track

STARLINK-32540, 61723 is a payload satellite owned by SpaceX/Seattle (US) in LEO that was launched on Wed, 30 Oct 2024 UTC via an FALCON 9 launch vehicle from the Air Force Eastern Test Range (AFETR). Payload-class satellites include a variety of spacecraft equipped with specific instruments for various scientific and technological missions. These include communications satellites like Starlink; space stations such as the ISS; scientific satellites like the Hubble; Earth observation satellites from companies like Planet Labs, Umbra, and HawkEye 360; GPS; miniature CubeSats for education and research; and military/defense satellites.

Loading next visibility...
Identifier
61723, 2024-196S
Orbit
LEO
Country
Flag of USUS
Related business
Manufacturer
SpaceX/Seattle
Mission
Operational Commercial Communications
Bus & Motor
STARLINK V2M, Unknown motor
Mass
730 kg wet, ~700 kg dry
Launch date (UTC)
2024-10-30 (2 years ago)
Launch vehicle
FALCON 9
Launch site
Air Force Eastern Test Range (AFETR)
Object type
Payload
Rocket body
Debris
Shape & HBR
Box + 2 Pan, 17.7 m
Radar Cross Section
33.884 m², Large (>1 m²)

Expand to show TLE details & history
Last TLE update: 23 hours ago

TLE from 23 hours ago
0 STARLINK-32540
1 61723U 24196S   26197.37219266  .00001532  00000-0  56478-4 0  9997
2 61723  53.1592 186.4906 0001601  99.1331 260.9852 15.34397992 97374
Epoch: 2026-07-16T08:55Z
TLE epoch observation values (Epoch: 2026-07-16T08:55:57.445Z)
Latitude
-0.0001°
Longitude
118.28658°
Altitude
463.782 km
Speed
7.636 km/s
True Right ascension
12h 25m 57s
True Declination
0° 00' 00"
Sunlit
Object was in daylight at epoch
Visualization orbit readout
Latitude
Unknown
Longitude
Unknown
Altitude
Unknown
Speed
Unknown
Apparent Right ascension
Unknown
Apparent Declination
Unknown
Sunlit
N/A
Visualization observer readout
Local Sidereal Time
20:59:15
Azimuth
Unknown
Elevation
Unknown
Doppler factor
Unknown
Orbital elements
Apogee altitude
464.061 km
Perigee altitude
461.871 km
Semi-major axis
6,841.103 km
Eccentricity
0.00016
Inclination
53.1592°
RAAN
186.4906°
Arg. of periapsis
99.1331°
True anomaly
260.96708°
Mean anomaly
260.9852°
Eccentric anomaly
260.97614°
Mean motion
3.83578 °/min
Orbital period
93.85 mins
BSTAR
0.000056478
Loading maneuver chart data...
Computing Atmospheric mass density...
Loading historical data...
Loading historical data...
Loading historical data...
Loading historical data...
Loading historical data...
Loading historical data...
Loading historical data...

Documentation

Showing up to 5 results
|